TimeCDT,TemperatureF,Dew PointF,Humidity,Sea Level PressureIn,VisibilityMPH,Wind Direction,Wind SpeedMPH,Gust SpeedMPH,PrecipitationIn,Events,Conditions,WindDirDegrees,DateUTC
12:53 AM,39.9,28.9,65,30.35,10.0,North,4.6,-,N/A,,Partly Cloudy,350,2012-10-07 05:53:00
1:53 AM,41.0,30.0,65,30.36,10.0,NNW,3.5,-,N/A,,Scattered Clouds,330,2012-10-07 06:53:00
2:53 AM,39.0,30.0,70,30.37,10.0,NNW,3.5,-,N/A,,Mostly Cloudy,330,2012-10-07 07:53:00
3:53 AM,41.0,30.9,67,30.34,10.0,North,4.6,-,N/A,,Overcast,350,2012-10-07 08:53:00
4:53 AM,36.0,30.0,79,30.34,10.0,West,3.5,-,N/A,,Clear,270,2012-10-07 09:53:00
5:53 AM,36.0,30.0,79,30.33,10.0,NNW,4.6,-,N/A,,Clear,330,2012-10-07 10:53:00
6:53 AM,35.1,30.9,85,30.33,10.0,North,6.9,-,N/A,,Clear,350,2012-10-07 11:53:00
7:53 AM,36.0,30.9,82,30.34,10.0,North,4.6,-,N/A,,Clear,350,2012-10-07 12:53:00
8:53 AM,42.1,32.0,67,30.36,10.0,North,6.9,-,N/A,,Clear,360,2012-10-07 13:53:00
9:53 AM,48.0,30.0,50,30.35,10.0,NNE,8.1,-,N/A,,Clear,30,2012-10-07 14:53:00
10:53 AM,48.9,26.1,41,30.35,10.0,Variable,4.6,-,N/A,,Clear,0,2012-10-07 15:53:00
11:53 AM,52.0,24.1,34,30.35,10.0,Calm,Calm,-,N/A,,Clear,0,2012-10-07 16:53:00
12:53 PM,55.9,23.0,28,30.31,10.0,NNW,5.8,-,N/A,,Clear,330,2012-10-07 17:53:00
1:53 PM,53.1,21.9,30,30.29,10.0,NE,6.9,-,N/A,,Clear,40,2012-10-07 18:53:00
2:53 PM,52.0,21.9,31,30.26,10.0,Calm,Calm,-,N/A,,Mostly Cloudy,0,2012-10-07 19:53:00
3:53 PM,52.0,23.0,32,30.25,10.0,Variable,4.6,-,N/A,,Overcast,0,2012-10-07 20:53:00
4:53 PM,52.0,21.9,31,30.24,10.0,Calm,Calm,-,N/A,,Overcast,0,2012-10-07 21:53:00
5:53 PM,52.0,24.1,34,30.22,10.0,WSW,6.9,-,N/A,,Overcast,240,2012-10-07 22:53:00
6:53 PM,50.0,25.0,38,30.22,10.0,WSW,8.1,-,N/A,,Overcast,240,2012-10-07 23:53:00
7:53 PM,46.9,28.9,50,30.24,10.0,SW,6.9,-,N/A,,Partly Cloudy,220,2012-10-08 00:53:00
8:53 PM,44.1,30.9,60,30.25,10.0,SSW,4.6,-,N/A,,Clear,210,2012-10-08 01:53:00
9:53 PM,39.9,30.0,68,30.24,10.0,South,5.8,-,N/A,,Clear,190,2012-10-08 02:53:00
10:53 PM,37.9,30.9,76,30.25,10.0,Calm,Calm,-,N/A,,Clear,0,2012-10-08 03:53:00
11:53 PM,37.0,32.0,82,30.24,10.0,Calm,Calm,-,N/A,,Clear,0,2012-10-08 04:53:00